Fairmont, MN

1:06 PM CST on February 21, 2018 (GMT -0600)
Fairmont Municipal

Weather History for KFRM - January, 2013

Change the Weather History Date:

Tuesday, January 15, 2013

  Actual Average Record
Temperature  
Mean Temperature 22 °F -  
Max Temperature 32 °F 22 °F 49 °F (1990)
Min Temperature 12 °F 5 °F -29 °F (1972)
Degree Days  
Heating Degree Days 43    
Moisture  
Dew Point 13 °F    
Average Humidity 70    
Maximum Humidity 85    
Minimum Humidity 51    
Precipitation  
Precipitation 0.00 in - - ()
Sea Level Pressure  
Sea Level Pressure 30.12 in    
Wind  
Wind Speed 12 mph (SSW)    
Max Wind Speed 18 mph    
Max Gust Speed 23 mph    
Visibility 10 miles    
Events      
Averages and records for this station are not official NWS values.
T = Trace of Precipitation, MM = Missing Value Source: NWS Daily Summary

Daily Weather History Graph

Daily Weather History Graph

Search for Another Location

Airport or City:

Trip Planner

Search our weather history database for the weather conditions in past years. The results will help you decide how hot, cold, wet, or windy it might be!

Date:

Astronomy

Jan. 15, 2013 Rise Set
Actual Time 7:47 AM CST 5:06 PM CST
Civil Twilight 7:16 AM CST 5:38 PM CST
Nautical Twilight 6:40 AM CST 6:14 PM CST
Astronomical Twilight 6:06 AM CST 6:48 PM CST
Moon 9:44 AM CST (1/15) 10:08 PM CST (1/15)
Length of Visible Light 10h 22m
Length of Day
9h 19m
Waxing Crescent, 19% of the Moon is Illuminated
Jan 15
Waxing Crescent
Jan 18
First Quarter
Jan 26
Full
Feb 3
Last Quarter
Feb 10
New

Hourly Weather History & Observations

Time (CST) Temp. Windchill Dew Point Humidity Pressure Visibility Wind Dir Wind Speed Gust Speed Precip Events Conditions
12:15 AM 15.8 °F 3.4 °F 8.6 °F 73% 30.26 in 10.0 mi SSW 10.4 mph - N/A   Clear
12:35 AM 15.8 °F 3.4 °F 8.6 °F 73% 30.25 in 10.0 mi SSW 10.4 mph - N/A   Clear
12:55 AM 15.8 °F 2.7 °F 8.6 °F 73% 30.25 in 10.0 mi SSW 11.5 mph - N/A   Clear
1:15 AM 15.8 °F 3.4 °F 8.6 °F 73% 30.25 in 10.0 mi SSW 10.4 mph - N/A   Clear
1:35 AM 14.0 °F 1.2 °F 8.6 °F 79% 30.25 in 10.0 mi SSW 10.4 mph - N/A   Clear
1:55 AM 14.0 °F 2.0 °F 8.6 °F 79% 30.24 in 10.0 mi SSW 9.2 mph - N/A   Clear
2:15 AM 14.0 °F 2.0 °F 6.8 °F 73% 30.24 in 10.0 mi SSW 9.2 mph - N/A   Clear
2:35 AM 14.0 °F 1.2 °F 8.6 °F 79% 30.24 in 10.0 mi SSW 10.4 mph - N/A   Clear
2:55 AM 14.0 °F 1.2 °F 8.6 °F 79% 30.24 in 10.0 mi SSW 10.4 mph - N/A   Clear
3:15 AM 14.0 °F 1.2 °F 8.6 °F 79% 30.24 in 10.0 mi SSW 10.4 mph - N/A   Clear
3:35 AM 14.0 °F 2.0 °F 6.8 °F 73% 30.23 in 10.0 mi SSW 9.2 mph - N/A   Clear
3:55 AM 14.0 °F 2.9 °F 6.8 °F 73% 30.23 in 10.0 mi SSW 8.1 mph - N/A   Clear
4:55 AM 12.2 °F -0.2 °F 6.8 °F 79% 30.21 in 10.0 mi SSW 9.2 mph - N/A   Clear
5:15 AM 12.2 °F -0.2 °F 8.6 °F 85% 30.21 in 10.0 mi SSW 9.2 mph - N/A   Clear
5:35 AM 12.2 °F -1.0 °F 6.8 °F 79% 30.21 in 10.0 mi SSW 10.4 mph - N/A   Clear
5:55 AM 12.2 °F -0.2 °F 6.8 °F 79% 30.21 in 10.0 mi SW 9.2 mph - N/A   Mostly Cloudy
6:15 AM 14.0 °F 2.9 °F 8.6 °F 79% 30.21 in 10.0 mi SW 8.1 mph - N/A   Overcast
6:35 AM 14.0 °F 2.9 °F 8.6 °F 79% 30.20 in 10.0 mi SSW 8.1 mph - N/A   Overcast
6:55 AM 14.0 °F 2.0 °F 8.6 °F 79% 30.20 in 10.0 mi SSW 9.2 mph - N/A   Scattered Clouds
7:15 AM 12.2 °F -0.2 °F 8.6 °F 85% 30.20 in 10.0 mi SSW 9.2 mph - N/A   Clear
7:35 AM 12.2 °F 0.7 °F 8.6 °F 85% 30.20 in 10.0 mi SSW 8.1 mph - N/A   Clear
7:55 AM 14.0 °F 2.0 °F 8.6 °F 79% 30.20 in 10.0 mi South 9.2 mph - N/A   Clear
8:15 AM 12.2 °F -1.0 °F 6.8 °F 79% 30.20 in 10.0 mi SSW 10.4 mph - N/A   Clear
8:35 AM 14.0 °F 1.2 °F 8.6 °F 79% 30.20 in 10.0 mi SSW 10.4 mph - N/A   Clear
8:55 AM 15.8 °F 2.7 °F 10.4 °F 79% 30.20 in 10.0 mi SSW 11.5 mph - N/A   Clear
9:15 AM 17.6 °F 5.0 °F 10.4 °F 73% 30.21 in 10.0 mi SSW 11.5 mph - N/A   Clear
9:35 AM 17.6 °F 4.3 °F 10.4 °F 73% 30.21 in 10.0 mi SSW 12.7 mph - N/A   Clear
9:55 AM 19.4 °F 6.6 °F 12.2 °F 74% 30.20 in 10.0 mi SSW 12.7 mph - N/A   Clear
10:15 AM 21.2 °F 8.9 °F 12.2 °F 68% 30.20 in 10.0 mi SSW 12.7 mph - N/A   Clear
10:35 AM 21.2 °F 8.3 °F 14.0 °F 74% 30.19 in 10.0 mi SSW 13.8 mph - N/A   Clear
10:55 AM 24.8 °F 14.0 °F 15.8 °F 69% 30.19 in 10.0 mi SSW 11.5 mph - N/A   Clear
11:15 AM 24.8 °F 13.4 °F 15.8 °F 69% 30.18 in 10.0 mi SSW 12.7 mph - N/A   Clear
11:35 AM 26.6 °F 14.3 °F 15.8 °F 64% 30.17 in 10.0 mi SSW 16.1 mph - N/A   Clear
11:55 AM 26.6 °F 16.2 °F 17.6 °F 69% 30.16 in 10.0 mi SW 11.5 mph - N/A   Clear
12:15 PM 28.4 °F 17.5 °F 15.8 °F 59% 30.15 in 10.0 mi SW 13.8 mph - N/A   Clear
12:35 PM 28.4 °F 16.2 °F 17.6 °F 64% 30.14 in 10.0 mi SW 17.3 mph 20.7 mph N/A   Clear
12:55 PM 28.4 °F 16.6 °F 15.8 °F 59% 30.12 in 10.0 mi SW 16.1 mph - N/A   Clear
1:15 PM 30.2 °F 20.2 °F 15.8 °F 55% 30.11 in 10.0 mi SW 12.7 mph - N/A   Clear
1:35 PM 30.2 °F 18.1 °F 14.0 °F 51% 30.10 in 10.0 mi SW 18.4 mph - N/A   Clear
1:55 PM 30.2 °F 18.9 °F 15.8 °F 55% 30.10 in 10.0 mi SW 16.1 mph - N/A   Clear
2:15 PM 30.2 °F 18.5 °F 14.0 °F 51% 30.09 in 10.0 mi SSW 17.3 mph - N/A   Clear
2:35 PM 30.2 °F 18.9 °F 15.8 °F 55% 30.08 in 10.0 mi SW 16.1 mph - N/A   Clear
2:55 PM 32.0 °F 20.8 °F 15.8 °F 51% 30.08 in 10.0 mi SSW 17.3 mph 23.0 mph N/A   Clear
3:15 PM 30.2 °F 19.8 °F 15.8 °F 55% 30.07 in 10.0 mi SSW 13.8 mph 19.6 mph N/A   Clear
3:35 PM 30.2 °F 19.8 °F 15.8 °F 55% 30.06 in 10.0 mi SSW 13.8 mph - N/A   Clear
3:55 PM 30.2 °F 18.5 °F 15.8 °F 55% 30.05 in 10.0 mi SSW 17.3 mph 21.9 mph N/A   Clear
4:15 PM 30.2 °F 18.5 °F 15.8 °F 55% 30.05 in 10.0 mi SSW 17.3 mph 21.9 mph N/A   Clear
4:35 PM 30.2 °F 19.8 °F 15.8 °F 55% 30.06 in 10.0 mi SSW 13.8 mph - N/A   Clear
4:55 PM 28.4 °F 17.5 °F 15.8 °F 59% 30.05 in 10.0 mi SSW 13.8 mph - N/A   Clear
5:15 PM 28.4 °F 18.0 °F 15.8 °F 59% 30.05 in 10.0 mi SSW 12.7 mph - N/A   Clear
5:35 PM 28.4 °F 18.5 °F 15.8 °F 59% 30.05 in 10.0 mi SSW 11.5 mph - N/A   Clear
5:55 PM 26.6 °F 16.2 °F 15.8 °F 64% 30.04 in 10.0 mi SSW 11.5 mph - N/A   Clear
6:15 PM 26.6 °F 15.7 °F 15.8 °F 64% 30.04 in 10.0 mi SSW 12.7 mph - N/A   Clear
6:35 PM 26.6 °F 15.2 °F 15.8 °F 64% 30.02 in 10.0 mi South 13.8 mph - N/A   Clear
6:55 PM 26.6 °F 15.2 °F 15.8 °F 64% 30.02 in 10.0 mi SSW 13.8 mph 18.4 mph N/A   Clear
7:15 PM 24.8 °F 13.4 °F 15.8 °F 69% 30.02 in 10.0 mi SSW 12.7 mph - N/A   Clear
7:35 PM 24.8 °F 13.4 °F 15.8 °F 69% 30.01 in 10.0 mi SSW 12.7 mph - N/A   Clear
7:55 PM 24.8 °F 12.4 °F 15.8 °F 69% 30.00 in 10.0 mi South 15.0 mph - N/A   Clear
8:15 PM 24.8 °F 12.4 °F 15.8 °F 69% 29.99 in 10.0 mi South 15.0 mph - N/A   Clear
8:35 PM 24.8 °F 12.4 °F 15.8 °F 69% 29.97 in 10.0 mi South 15.0 mph - N/A   Clear
8:55 PM 23.0 °F 9.6 °F 15.8 °F 74% 29.95 in 10.0 mi South 16.1 mph - N/A   Clear
9:15 PM 23.0 °F 8.7 °F 15.8 °F 74% 29.93 in 10.0 mi South 18.4 mph - N/A   Clear
9:35 PM 23.0 °F 9.2 °F 15.8 °F 74% 29.93 in 10.0 mi South 17.3 mph - N/A   Clear
9:55 PM 23.0 °F 9.6 °F 15.8 °F 74% 29.92 in 10.0 mi SSW 16.1 mph - N/A   Clear
10:15 PM 21.2 °F 6.8 °F 15.8 °F 80% 29.90 in 10.0 mi SSW 17.3 mph - N/A   Clear
10:35 PM 21.2 °F 7.8 °F 15.8 °F 80% 29.90 in 10.0 mi SSW 15.0 mph - N/A   Clear
10:55 PM 21.2 °F 7.3 °F 15.8 °F 80% 29.89 in 10.0 mi SSW 16.1 mph 21.9 mph N/A   Clear
11:15 PM 21.2 °F 7.8 °F 15.8 °F 80% 29.88 in 10.0 mi SSW 15.0 mph - N/A   Clear
11:35 PM 21.2 °F 8.3 °F 15.8 °F 80% 29.88 in 10.0 mi SSW 13.8 mph - N/A   Clear